Weather History for Moron de la Frontera, Spain

Change the Weather History Date:

Thursday, September 27, 2012

  Actual Average Record
Temperature  
Mean Temperature 66 °F -  
Max Temperature 71 °F 77 °F 89 °F (1996)
Min Temperature 60 °F 57 °F 44 °F (1997)
Growing Degree Days 16 (Base 50)    
Moisture  
Dew Point 64 °F    
Average Humidity 93    
Maximum Humidity 100    
Minimum Humidity 77    
Precipitation  
Precipitation 0.00 in - - ()
Sea Level Pressure  
Sea Level Pressure 29.79 in    
Wind  
Wind Speed 4 mph ()    
Max Wind Speed 14 mph    
Max Gust Speed -    
Visibility 4.2 miles    
Events Rain , Thunderstorm    
Averages and records for this station are not official NWS values.
T = Trace of Precipitation, MM = Missing Value Source: Averaged Metar Reports

Daily Weather History Graph

Daily Weather History Graph

Search for Another Location

Airport:

Trip Planner

Search our weather history database for the weather conditions in past years. The results will help you decide how hot, cold, wet, or windy it might be!

Date:

Astronomy

Sep. 27, 2012 Rise Set
Actual Time 8:14 AM CEST 8:11 PM CEST
Civil Twilight 7:48 AM CEST 8:37 PM CEST
Nautical Twilight 7:18 AM CEST 9:07 PM CEST
Astronomical Twilight 6:47 AM CEST 9:37 PM CEST
Moon 6:33 PM CEST (9/27) 5:32 AM CEST (9/27)
Length of Visible Light 12h 48m
Length of Day
11h 56m
Waxing Gibbous, 92% of the Moon is Illuminated
Sep 27
Waxing Gibbous
Sep 30
Full
Oct 8
Last Quarter
Oct 15
New
Oct 22
First Quarter

Hourly Weather History & Observations

Time (CEST) Temp. Dew Point Humidity Pressure Visibility Wind Dir Wind Speed Gust Speed Precip Events Conditions
12:00 AM 64.4 °F 57.2 °F 77% 29.86 in 6.2 mi Calm Calm - N/A   Partly Cloudy
1:00 AM 62.6 °F 59.0 °F 88% 29.86 in 6.2 mi Calm Calm - N/A   Partly Cloudy
2:00 AM 60.8 °F 57.2 °F 88% 29.86 in 6.2 mi Calm Calm - N/A   Partly Cloudy
3:00 AM 62.6 °F 57.2 °F 82% 29.86 in 6.2 mi Variable 2.3 mph - N/A   Partly Cloudy
4:00 AM 62.6 °F 57.2 °F 82% 29.83 in 6.2 mi ENE 4.6 mph - N/A   Partly Cloudy
5:00 AM 64.4 °F 59.0 °F 83% 29.80 in 6.2 mi ENE 5.8 mph - N/A   Partly Cloudy
6:00 AM 64.4 °F 59.0 °F 83% 29.77 in 6.2 mi ENE 8.1 mph - N/A   Mostly Cloudy
7:00 AM 64.4 °F 60.8 °F 88% 29.77 in 3.7 mi ENE 5.8 mph - N/A Rain Rain
7:18 AM 64.4 °F 60.8 °F 88% 29.77 in 5.0 mi ENE 5.8 mph - N/A Rain Light Rain
8:00 AM 64.4 °F 62.6 °F 94% 29.77 in 5.0 mi ENE 9.2 mph - N/A Rain Light Rain
8:37 AM 62.6 °F 62.6 °F 100% 29.77 in 3.7 mi ENE 6.9 mph - N/A Rain Rain
9:00 AM 62.6 °F 62.6 °F 100% 29.80 in 3.1 mi NE 5.8 mph - N/A Rain Rain
9:40 AM 62.6 °F 62.6 °F 100% 29.80 in 1.9 mi North 5.8 mph - N/A Rain Rain
9:49 AM 62.6 °F 62.6 °F 100% 29.80 in 0.9 mi North 6.9 mph - N/A Rain Heavy Rain
10:00 AM 62.6 °F 62.6 °F 100% 29.80 in 1.2 mi NNE 6.9 mph - N/A Rain Rain
10:40 AM 62.6 °F 62.6 °F 100% 29.80 in 0.8 mi NE 6.9 mph - N/A Rain Heavy Rain
11:00 AM 62.6 °F 62.6 °F 100% 29.80 in 2.5 mi ENE 10.4 mph - N/A Rain Rain
12:00 PM 64.4 °F 64.4 °F 100% 29.77 in 2.5 mi East 13.8 mph - N/A Rain Rain
1:00 PM 64.4 °F 64.4 °F 100% 29.77 in 4.3 mi East 11.5 mph - N/A Rain Light Rain
1:40 PM 66.2 °F 64.4 °F 94% 29.77 in 2.5 mi East 6.9 mph - N/A Rain Rain
2:00 PM 66.2 °F 64.4 °F 94% 29.77 in 3.7 mi ENE 4.6 mph - N/A Rain Light Rain
3:00 PM 68.0 °F 66.2 °F 94% 29.77 in 4.3 mi NNE 3.5 mph - N/A Rain Light Rain
4:00 PM 69.8 °F 68.0 °F 94% 29.74 in 4.3 mi ENE 4.6 mph - N/A   Mostly Cloudy
5:00 PM 71.6 °F 68.0 °F 88% 29.74 in 3.7 mi NNE 4.6 mph - N/A Rain Rain
5:32 PM 69.8 °F 69.8 °F 100% 29.74 in 4.3 mi Calm Calm - N/A Rain Light Rain
6:00 PM 69.8 °F 68.0 °F 94% 29.74 in 5.6 mi SW 8.1 mph - N/A   Mostly Cloudy
7:00 PM 71.6 °F 68.0 °F 88% 29.77 in 4.3 mi WSW 5.8 mph - N/A   Mostly Cloudy
7:29 PM 71.6 °F 68.0 °F 88% 29.77 in 3.7 mi West 4.6 mph - N/A Thunderstorm Thunderstorm
8:00 PM 69.8 °F 68.0 °F 94% 29.77 in 6.2 mi West 4.6 mph - N/A   Mostly Cloudy
9:00 PM 68.0 °F 66.2 °F 94% 29.80 in 6.2 mi West 5.8 mph - N/A   Mostly Cloudy
9:49 PM 68.0 °F 68.0 °F 100% 29.83 in 3.7 mi West 6.9 mph - N/A Rain Rain
10:00 PM 68.0 °F 68.0 °F 100% 29.83 in 3.7 mi WSW 6.9 mph - N/A Rain Rain
11:00 PM 68.0 °F 68.0 °F 100% 29.83 in 5.0 mi SW 8.1 mph - N/A Rain Light Rain
11:28 PM 68.0 °F 68.0 °F 100% 29.83 in 3.1 mi South 5.8 mph - N/A Rain Rain